Satellite: LO-19
Catalog number: 20442
Epoch time:      05167.10261805
Element set:     417
Inclination:      098.2239 deg
RA of node:       201.1887 deg
Eccentricity:    0.0011239
Arg of perigee:   201.6145 deg
Mean anomaly:     158.4554 deg
Mean motion:   14.31924947 rev/day
Decay rate:        2.1e-07 rev/day^2
Epoch rev:           80406
Checksum:              279

Satellite: UO-22
Catalog number: 21575
Epoch time:      05167.02151944
Element set:     430
Inclination:      098.2432 deg
RA of node:       132.3989 deg
Eccentricity:    0.0008549
Arg of perigee:   093.3389 deg
Mean anomaly:     266.8785 deg
Mean motion:   14.39490912 rev/day
Decay rate:        7.3e-07 rev/day^2
Epoch rev:           73033
Checksum:              321

Satellite: KO-23
Catalog number: 22077
Epoch time:      05167.28640061
Element set:     498
Inclination:      066.0851 deg
RA of node:       148.3383 deg
Eccentricity:    0.0015722
Arg of perigee:   257.0051 deg
Mean anomaly:     102.9206 deg
Mean motion:   12.86431457 rev/day
Decay rate:       -3.7e-07 rev/day^2
Epoch rev:           60347
Checksum:              286

Satellite: AO-27
Catalog number: 22825
Epoch time:      05166.86570293
Element set:     154
Inclination:      098.2514 deg
RA of node:       162.4358 deg
Eccentricity:    0.0007333
Arg of perigee:   265.1771 deg
Mean anomaly:     094.8564 deg
Mean motion:   14.29132847 rev/day
Decay rate:        6.8e-07 rev/day^2
Epoch rev:           61103
Checksum:              312

Satellite: IO-26
Catalog number: 22826
Epoch time:      05166.54754825
Element set:     825
Inclination:      098.2477 deg
RA of node:       163.4173 deg
Eccentricity:    0.0007969
Arg of perigee:   267.6424 deg
Mean anomaly:     092.3845 deg
Mean motion:   14.29373089 rev/day
Decay rate:       -3.1e-07 rev/day^2
Epoch rev:           61105
Checksum:              331

Satellite: KO-25
Catalog number: 22828
Epoch time:      05166.54519743
Element set:      73
Inclination:      098.2431 deg
RA of node:       163.6141 deg
Eccentricity:    0.0008915
Arg of perigee:   245.2453 deg
Mean anomaly:     114.7801 deg
Mean motion:   14.29685971 rev/day
Decay rate:        2.5e-07 rev/day^2
Epoch rev:           57928
Checksum:              315

Satellite: TO-31
Catalog number: 25396
Epoch time:      05167.21531748
Element set:     274
Inclination:      098.5288 deg
RA of node:       234.4945 deg
Eccentricity:    0.0002882
Arg of perigee:   160.3519 deg
Mean anomaly:     199.7676 deg
Mean motion:   14.23672616 rev/day
Decay rate:       -4.2e-07 rev/day^2
Epoch rev:           36027
Checksum:              327

Satellite: GO-32
Catalog number: 25397
Epoch time:      05167.79150330
Element set:     763
Inclination:      098.5182 deg
RA of node:       232.5708 deg
Eccentricity:    0.0001580
Arg of perigee:   156.3210 deg
Mean anomaly:     203.8043 deg
Mean motion:   14.23080828 rev/day
Decay rate:       -2.0e-08 rev/day^2
Epoch rev:           36027
Checksum:              275

Satellite: UO-36
Catalog number: 25693
Epoch time:      05167.72996249
Element set:     294
Inclination:      064.5586 deg
RA of node:       285.1145 deg
Eccentricity:    0.0025017
Arg of perigee:   212.4176 deg
Mean anomaly:     147.5403 deg
Mean motion:   14.78513885 rev/day
Decay rate:       2.05e-06 rev/day^2
Epoch rev:           33175
Checksum:              324

Satellite: SO-41
Catalog number: 26545
Epoch time:      05167.36799495
Element set:     100
Inclination:      064.5587 deg
RA of node:       300.4624 deg
Eccentricity:    0.0048614
Arg of perigee:   306.0900 deg
Mean anomaly:     053.5698 deg
Mean motion:   14.80109689 rev/day
Decay rate:       2.07e-06 rev/day^2
Epoch rev:           25480
Checksum:              314

Satellite: MO-46
Catalog number: 26548
Epoch time:      05166.77313493
Element set:     208
Inclination:      064.5577 deg
RA of node:       284.8678 deg
Eccentricity:    0.0045506
Arg of perigee:   298.7302 deg
Mean anomaly:     060.9232 deg
Mean motion:   14.82740828 rev/day
Decay rate:       4.32e-06 rev/day^2
Epoch rev:           25507
Checksum:              332

Satellite: SO-42
Catalog number: 26549
Epoch time:      05167.56013272
Element set:     164
Inclination:      064.5571 deg
RA of node:       308.4901 deg
Eccentricity:    0.0050224
Arg of perigee:   310.5164 deg
Mean anomaly:     049.1567 deg
Mean motion:   14.78988083 rev/day
Decay rate:       1.35e-06 rev/day^2
Epoch rev:           25466
Checksum:              304

Satellite: NO-44
Catalog number: 26931
Epoch time:      05166.77955955
Element set:      59
Inclination:      067.0519 deg
RA of node:       231.4170 deg
Eccentricity:    0.0006068
Arg of perigee:   259.7795 deg
Mean anomaly:     100.2622 deg
Mean motion:   14.29386801 rev/day
Decay rate:       -1.1e-07 rev/day^2
Epoch rev:           19356
Checksum:              316

Satellite: AO-49
Catalog number: 27605
Epoch time:      05167.17538331
Element set:     762
Inclination:      064.5566 deg
RA of node:       138.4068 deg
Eccentricity:    0.0081918
Arg of perigee:   240.2222 deg
Mean anomaly:     119.0702 deg
Mean motion:   14.72098838 rev/day
Decay rate:       2.28e-06 rev/day^2
Epoch rev:           13370
Checksum:              307

Satellite: SO-50
Catalog number: 27607
Epoch time:      05167.15283845
Element set:     744
Inclination:      064.5566 deg
RA of node:       144.1094 deg
Eccentricity:    0.0082436
Arg of perigee:   239.1428 deg
Mean anomaly:     120.1520 deg
Mean motion:   14.70976122 rev/day
Decay rate:       1.77e-06 rev/day^2
Epoch rev:           13358
Checksum:              299

